Wetbulb
57.04 57.36 57.14 56.93 56.99 57.25 57.60 58.05 58.41 59.14 60.10 60.47 61.24 61.86 61.89 61.65 60.67 58.64 54.48 58.64 59.16 60.92 61.02 60.80 60.27 62.65 63.05 60.41 60.40 58.94 50.00 47.04 48.60 49.44 50.92 54.84 52.95 56.07 58.20 56.07 56.71 57.70 57.69 59.65 60.93
57.08 57.23 56.80 56.78 56.85 57.03 56.98 57.39 57.85 58.06 58.77 59.37 59.90 60.51 60.98 60.73 57.86 54.75 60.81 61.84 61.86 61.87 58.19 56.93 56.10 58.75 58.38 58.05 57.98 54.22 49.13 49.16 53.31 53.69 52.72 54.30 54.00 55.69 55.28 55.49 55.94 57.28 58.94 60.08 59.93
57.20 56.84 56.84 56.57 56.76 56.78 57.11 56.84 56.96 58.04 58.24 58.51 59.04 59.57 60.09 59.75 52.92 53.47 62.67 63.21 63.25 62.43 59.75 58.11 58.39 58.55 54.87 57.72 56.25 54.80 49.41 53.30 54.00 55.02 55.16 53.64 53.91 56.51 54.95 53.55 56.43 55.85 57.47 59.22 59.55
57.14 56.80 56.41 56.42 56.65 56.75 56.43 56.46 56.39 56.89 58.19 58.14 58.43 58.75 59.72 56.89 42.01 56.36 60.60 60.25 62.12 61.85 59.11 55.92 54.40 53.11 52.18 52.02 56.12 51.62 54.01 54.22 54.87 55.65 54.52 53.13 55.17 54.13 55.40 56.25 58.91 59.49 60.20 59.99 58.96
57.25 57.16 56.65 56.30 56.54 56.55 56.51 56.01 55.69 56.10 57.07 57.97 58.29 58.14 56.40 49.67 49.88 58.80 57.46 56.58 58.75 59.25 56.68 54.42 51.31 51.72 49.21 52.81 53.69 51.41 53.50 54.73 55.45 55.40 55.10 55.47 53.44 53.56 54.58 58.17 59.82 59.93 59.92 59.68 59.22
57.21 57.36 56.88 56.67 56.70 56.36 56.48 56.23 56.19 55.61 55.73 57.41 58.05 57.96 52.97 43.42 56.29 57.71 57.82 56.94 55.48 56.39 55.86 55.81 52.41 53.69 51.67 51.47 51.45 53.97 54.34 54.09 55.02 54.66 54.91 53.19 53.65 54.48 55.51 58.43 58.38 58.68 58.55 58.78 58.91
56.97 57.51 57.15 57.01 56.99 56.94 56.52 56.23 56.16 55.60 55.42 56.32 57.29 55.87 49.48 47.28 55.14 56.36 55.64 54.48 55.56 54.54 53.66 56.21 55.86 53.42 53.39 49.84 53.99 53.75 50.17 52.53 53.36 54.23 53.43 55.17 51.12 51.70 56.37 57.69 56.52 54.72 55.54 56.51 56.66
56.84 57.13 57.94 57.28 57.13 56.63 56.42 56.28 55.92 56.16 55.60 55.83 56.11 53.99 45.56 55.11 56.85 54.62 54.95 53.30 54.76 55.00 54.10 56.24 56.90 52.80 51.01 54.41 50.99 49.13 49.77 44.65 51.48 53.30 54.02 53.50 46.66 53.33 56.81 55.46 53.56 53.82 54.32 55.60 56.04
57.34 57.35 58.02 57.17 56.97 56.58 56.27 56.68 56.76 56.03 55.84 55.82 52.82 50.88 43.88 54.70 50.75 54.08 54.86 51.03 52.60 53.67 53.86 54.81 53.88 49.43 49.89 46.50 44.62 47.06 42.99 44.82 48.24 53.60 52.69 52.07 48.35 53.11 55.92 53.45 52.95 53.89 54.45 55.27 55.67
58.29 57.66 57.71 57.86 57.08 56.34 55.29 55.71 56.58 55.65 54.66 54.24 52.43 45.48 48.02 45.79 50.87 52.29 54.46 52.84 49.77 49.96 48.75 49.12 48.26 44.40 45.18 44.05 37.79 42.39 42.70 45.01 45.54 50.73 51.79 49.96 49.23 52.58 54.73 54.17 53.70 53.87 54.44 54.90 55.21
58.42 57.44 57.36 57.31 57.22 56.22 53.88 51.88 46.42 44.10 48.04 44.87 45.26 45.07 46.71 50.74 52.63 50.35 52.12 50.10 49.15 46.69 41.28 45.65 40.46 37.68 42.19 43.57 46.26 46.50 45.74 45.37 48.70 51.32 50.27 49.01 48.80 51.31 53.29 54.08 53.74 53.77 53.79 54.55 54.68
58.12 57.31 57.28 57.26 57.17 56.34 53.62 47.63 47.15 48.05 41.09 46.99 47.37 47.22 49.47 50.66 45.01 48.16 52.23 45.04 43.44 39.19 42.70 40.71 36.59 43.62 45.50 45.11 44.81 45.57 44.55 45.98 48.31 50.54 48.81 48.32 48.23 51.49 53.25 53.70 54.91 53.75 53.67 54.21 53.99
57.72 57.03 56.97 56.80 55.87 53.73 50.76 49.54 52.11 50.76 40.41 41.43 45.23 44.83 45.94 47.97 43.56 45.57 48.73 46.03 41.91 38.97 38.65 37.00 39.71 44.97 43.56 42.20 43.18 44.92 44.23 45.04 44.86 48.63 48.94 47.81 46.44 49.20 52.74 54.49 53.79 53.43 54.70 54.94 53.75
57.43 56.91 56.70 56.06 50.87 52.20 49.80 53.12 52.51 50.84 32.96 36.88 40.14 43.17 45.41 45.48 40.84 48.45 50.43 46.47 42.46 38.28 39.10 38.07 42.74 38.57 41.88 40.16 43.21 41.20 48.10 47.66 46.17 45.34 40.34 48.54 39.70 47.91 50.86 49.06 49.79 51.20 53.25 53.85 53.77
57.23 57.16 56.76 55.62 53.22 49.83 51.04 51.41 50.96 47.31 25.90 39.63 40.26 48.38 46.13 41.23 43.81 44.25 49.83 46.81 39.77 39.24 38.07 36.78 38.78 37.89 39.97 41.03 46.59 43.41 49.38 47.25 46.68 45.35 43.54 43.77 41.80 46.28 50.74 48.09 49.18 50.85 52.63 53.42 53.65
57.21 56.85 56.41 54.38 53.24 53.11 51.65 50.90 47.94 32.35 25.75 35.83 40.09 38.79 38.97 41.39 41.89 44.97 44.68 47.87 45.94 39.91 40.01 39.07 44.04 43.54 43.17 45.79 46.69 48.47 47.95 46.87 46.17 43.62 37.19 43.37 43.29 44.16 46.96 48.37 50.21 50.88 52.09 52.68 52.83
57.21 56.68 55.03 53.86 49.36 54.36 51.16 46.18 32.07 28.15 37.86 34.97 35.78 38.85 38.33 37.30 38.91 40.71 38.90 38.19 35.91 31.72 32.90 36.69 36.84 43.21 46.77 44.07 46.83 46.13 42.39 35.71 34.55 34.76 36.03 44.88 43.23 45.92 47.25 48.64 50.06 50.05 51.28 52.31 52.75
56.83 56.46 54.79 52.73 55.56 52.62 48.09 37.43 28.14 34.81 34.40 38.79 37.87 37.75 35.29 37.53 38.10 38.64 37.47 34.94 39.14 36.62 33.96 31.90 31.26 37.88 44.85 43.85 41.12 42.57 43.70 38.07 31.26 33.33 37.59 42.55 38.64 44.81 48.87 49.85 51.48 51.95 52.26 52.41 52.17
56.33 55.13 52.74 52.75 54.98 51.83 41.79 30.70 32.97 36.16 38.20 37.35 37.76 35.11 35.20 37.02 37.59 37.34 35.98 36.30 38.70 38.41 33.60 33.92 34.34 44.34 46.63 47.21 45.30 40.95 40.92 45.88 40.90 42.28 40.21 41.13 44.90 47.01 48.57 48.12 48.66 50.51 51.47 51.18 51.76
52.21 49.15 48.97 55.26 55.21 48.93 37.54 33.70 36.79 40.86 40.01 38.88 32.95 37.22 32.38 34.01 34.96 35.28 36.65 40.17 38.70 40.74 40.33 37.63 33.58 40.18 44.20 46.59 44.91 44.95 48.53 40.39 42.16 34.30 33.57 40.00 41.53 42.69 45.20 46.75 47.74 48.59 50.37 51.15 52.01
49.47 44.25 52.40 55.09 52.66 41.96 32.41 35.06 38.88 42.88 41.72 37.92 36.89 36.81 37.04 34.63 36.57 35.36 36.46 40.64 41.65 40.72 41.24 40.24 34.48 35.17 42.00 42.13 40.86 42.19 41.52 44.09 44.77 42.48 37.48 36.96 40.36 48.53 46.74 47.38 47.72 48.92 50.91 51.42 51.68
47.91 40.25 52.25 52.66 40.44 38.87 35.21 37.62 41.90 41.62 42.89 40.61 42.01 40.48 38.47 38.45 37.08 37.33 36.52 39.76 44.08 43.60 38.60 42.90 40.12 34.60 37.09 44.23 48.08 46.43 43.29 44.93 39.98 37.66 41.14 39.88 40.10 47.73 48.07 48.17 48.53 49.43 50.59 52.19 52.28
44.18 46.67 51.69 49.46 35.78 36.25 38.13 38.59 40.38 40.30 40.56 40.78 40.66 42.52 42.78 39.35 36.23 38.83 40.46 44.62 45.89 42.58 42.41 44.33 39.84 35.33 35.84 39.68 42.63 42.42 44.86 46.69 46.28 45.62 40.84 38.13 40.76 48.04 49.35 48.64 48.43 49.31 50.75 51.71 51.67
45.19 41.96 44.05 45.77 44.57 39.90 37.39 37.67 37.59 43.31 41.88 43.19 42.33 43.75 41.77 40.03 41.92 38.52 39.02 44.74 46.92 44.76 47.66 47.15 42.18 40.48 36.94 40.39 42.05 39.74 42.74 45.53 44.03 40.33 41.04 42.24 43.43 45.30 47.58 47.94 48.32 49.27 50.75 51.21 51.15
45.27 43.94 44.60 38.32 40.08 40.77 41.19 40.04 39.29 40.41 42.85 43.74 42.72 42.62 41.19 38.08 39.36 39.68 40.99 43.96 45.78 46.81 46.52 46.21 40.83 43.11 43.56 44.62 44.41 43.24 43.39 43.66 43.12 44.36 41.22 43.87 43.67 47.28 49.30 49.46 49.65 50.19 50.42 50.26 50.03
43.32 43.42 47.23 44.32 42.99 41.71 40.70 38.76 38.40 40.33 43.19 42.34 41.03 44.75 43.85 41.16 40.88 40.26 43.09 44.04 43.15 46.76 45.34 46.78 41.16 42.47 40.35 42.92 43.72 42.16 44.10 44.76 44.55 45.21 45.18 45.62 45.41 51.06 50.99 51.05 50.32 50.11 49.93 49.44 49.62
47.34 48.85 46.72 44.66 45.14 42.41 41.08 39.56 40.94 43.07 45.57 46.10 45.33 44.93 44.02 44.97 47.42 49.55 49.68 49.07 48.23 45.98 44.43 42.88 42.42 40.79 37.60 41.11 41.41 37.86 42.69 43.62 44.36 45.63 45.47 42.09 46.90 51.11 47.54 48.31 49.24 50.17 49.97 49.49 49.84
MSLP
1015.85 1015.51 1015.25 1015.23 1015.08 1014.74 1014.49 1014.43 1014.46 1014.51 1014.45 1014.47 1014.51 1014.66 1014.84 1015.03 1015.21 1015.05 1014.03 1013.12 1013.20 1013.56 1013.53 1012.59 1012.12 1011.50 1011.26 1010.83 1010.41 1010.16 1009.28 1007.74 1007.22 1006.76 1006.54 1006.43 1006.69 1006.35 1006.67 1006.27 1005.70 1005.21 1005.07 1005.33 1005.96
1015.62 1015.44 1015.13 1015.11 1015.04 1014.89 1014.54 1014.39 1014.38 1014.52 1014.66 1014.67 1014.42 1014.65 1014.89 1015.10 1014.79 1014.02 1013.21 1013.31 1013.49 1013.78 1013.26 1012.28 1011.47 1011.04 1010.67 1010.35 1010.07 1009.66 1008.64 1007.62 1007.05 1006.58 1006.64 1006.52 1006.90 1006.64 1006.70 1005.92 1005.17 1004.79 1004.69 1005.23 1005.41
1015.39 1015.37 1015.13 1014.99 1014.96 1014.96 1014.66 1014.39 1014.27 1014.33 1014.53 1014.57 1014.64 1014.72 1014.97 1015.02 1014.40 1012.68 1012.37 1012.73 1013.01 1013.41 1013.01 1012.48 1012.09 1011.64 1010.58 1010.14 1009.51 1009.05 1008.04 1007.56 1006.99 1006.84 1007.26 1007.16 1007.01 1006.76 1006.43 1005.85 1005.31 1004.80 1004.73 1004.93 1005.32
1015.15 1015.21 1015.09 1014.97 1014.94 1014.99 1014.74 1014.43 1014.21 1014.19 1014.46 1014.68 1014.76 1014.79 1014.97 1014.75 1013.54 1012.36 1012.68 1012.61 1012.55 1012.91 1012.66 1012.18 1012.11 1011.78 1010.79 1009.90 1009.22 1008.53 1008.12 1007.77 1007.12 1006.99 1007.42 1007.36 1007.13 1006.61 1006.34 1005.74 1005.47 1005.38 1005.22 1005.18 1005.30
1014.89 1014.97 1014.91 1014.87 1014.93 1015.03 1014.87 1014.43 1014.23 1014.14 1014.36 1014.62 1014.79 1014.95 1015.17 1014.24 1012.62 1012.67 1012.98 1012.72 1012.14 1012.49 1012.16 1011.87 1011.60 1011.41 1010.70 1009.69 1009.64 1008.55 1007.90 1007.48 1007.38 1007.16 1007.15 1007.37 1006.95 1006.57 1006.17 1005.73 1005.24 1004.92 1004.73 1004.79 1004.99
1014.58 1014.67 1014.78 1014.68 1014.80 1014.89 1014.82 1014.59 1014.31 1013.96 1014.14 1014.54 1014.77 1014.96 1014.52 1013.20 1012.14 1012.02 1012.15 1012.30 1012.33 1011.92 1011.87 1011.89 1011.45 1010.96 1010.52 1009.94 1008.99 1008.64 1008.01 1007.62 1007.03 1007.08 1007.06 1006.96 1006.47 1006.26 1005.56 1005.34 1004.50 1004.23 1004.13 1004.30 1004.66
1014.21 1014.27 1014.46 1014.46 1014.60 1014.75 1014.70 1014.52 1014.29 1013.94 1013.90 1014.35 1014.76 1014.72 1014.03 1012.63 1012.11 1012.11 1012.17 1012.04 1012.12 1012.13 1011.72 1011.87 1011.71 1011.09 1010.62 1010.15 1009.12 1008.70 1007.99 1007.42 1006.96 1006.78 1006.60 1006.53 1005.78 1005.08 1004.98 1004.62 1004.13 1003.98 1003.87 1004.11 1005.21
1013.77 1013.90 1013.95 1014.14 1014.24 1014.56 1014.60 1014.37 1014.15 1013.90 1013.90 1014.18 1014.60 1014.43 1013.21 1012.26 1012.37 1012.27 1012.23 1012.08 1012.07 1012.12 1012.13 1011.93 1011.96 1011.81 1012.20 1011.15 1009.53 1008.78 1008.56 1007.44 1006.71 1006.33 1006.08 1006.42 1004.38 1004.25 1003.66 1003.86 1003.84 1003.66 1003.80 1004.65 1005.53
1013.34 1013.44 1013.52 1013.72 1013.91 1014.37 1014.49 1014.39 1014.11 1013.97 1014.03 1014.19 1014.40 1014.17 1012.55 1011.93 1012.00 1011.68 1011.86 1011.75 1011.70 1012.01 1012.13 1012.17 1012.08 1012.33 1012.57 1011.96 1010.46 1008.59 1007.33 1006.61 1006.38 1005.39 1005.30 1005.30 1004.20 1003.91 1003.68 1003.83 1003.59 1003.32 1003.53 1004.57 1005.37
1012.84 1013.01 1013.12 1013.30 1013.55 1014.05 1014.40 1014.27 1013.85 1013.94 1014.10 1014.11 1013.81 1014.12 1012.08 1011.18 1010.98 1011.12 1011.40 1011.79 1011.81 1012.04 1011.94 1011.97 1012.42 1012.16 1012.14 1011.58 1008.68 1007.61 1006.84 1005.85 1005.50 1004.61 1004.87 1004.67 1004.13 1003.97 1003.37 1003.03 1003.05 1002.96 1003.05 1004.31 1005.17
1012.31 1012.57 1012.75 1012.84 1013.20 1013.75 1014.39 1014.51 1014.60 1014.40 1013.54 1012.21 1011.77 1011.02 1010.57 1010.54 1010.85 1010.94 1010.99 1011.63 1012.00 1011.91 1011.59 1011.39 1011.83 1010.95 1010.60 1010.54 1009.32 1007.30 1006.14 1005.16 1004.26 1003.82 1004.02 1004.07 1003.77 1003.09 1002.80 1002.65 1002.57 1002.73 1002.96 1004.08 1005.20
1011.95 1012.15 1012.41 1012.46 1012.81 1013.41 1014.02 1013.59 1012.87 1012.85 1012.70 1012.30 1011.42 1011.26 1010.89 1010.90 1010.58 1010.54 1010.81 1011.30 1011.45 1011.03 1011.56 1011.62 1010.81 1010.47 1010.20 1010.00 1009.19 1007.81 1005.78 1004.18 1003.81 1003.83 1004.50 1003.92 1003.11 1002.47 1002.05 1002.12 1001.95 1002.12 1002.80 1003.89 1005.38
1011.57 1011.80 1012.04 1012.26 1012.67 1013.23 1013.17 1012.85 1012.65 1012.77 1012.62 1011.81 1011.33 1010.88 1010.91 1011.21 1010.17 1009.70 1010.39 1010.32 1010.12 1010.59 1010.69 1010.79 1009.58 1010.19 1009.67 1009.91 1008.74 1006.89 1005.33 1003.78 1003.81 1004.09 1004.51 1004.11 1002.91 1001.95 1001.63 1001.49 1001.56 1002.14 1002.46 1003.81 1005.26
1011.12 1011.41 1011.73 1012.26 1013.14 1012.17 1012.26 1012.25 1012.66 1013.14 1012.49 1010.98 1010.43 1010.00 1010.75 1011.23 1010.35 1009.80 1009.56 1009.63 1009.57 1009.65 1010.41 1010.76 1009.67 1010.44 1009.15 1009.07 1008.70 1006.97 1004.95 1004.13 1004.06 1004.22 1004.05 1003.73 1001.54 999.74 999.81 1000.99 1001.69 1002.01 1002.48 1003.87 1005.12
1010.63 1010.97 1011.29 1011.66 1011.32 1011.84 1012.34 1012.61 1013.01 1013.47 1011.98 1009.59 1009.75 1009.70 1010.03 1010.46 1008.74 1008.17 1008.64 1009.20 1008.90 1009.26 1010.71 1009.72 1009.27 1010.04 1008.40 1008.30 1007.68 1006.64 1004.85 1004.34 1004.57 1004.44 1004.75 1003.75 1002.49 1000.00 999.50 999.99 1000.79 1001.63 1002.62 1003.98 1005.35
1010.08 1010.40 1010.88 1011.45 1011.39 1011.42 1012.35 1012.75 1013.20 1013.42 1010.35 1009.42 1009.41 1009.50 1009.62 1009.76 1008.69 1007.86 1008.10 1008.71 1008.87 1009.50 1009.89 1009.25 1008.77 1008.52 1007.38 1007.81 1007.41 1006.00 1004.45 1004.64 1004.83 1004.67 1004.04 1002.67 1001.72 999.46 998.92 999.31 999.71 1001.42 1002.84 1004.25 1005.55
1009.45 1009.80 1010.31 1009.94 1009.87 1011.16 1012.26 1012.81 1013.03 1011.24 1009.33 1009.23 1009.19 1009.15 1009.20 1008.95 1008.70 1008.21 1008.21 1008.43 1008.84 1009.57 1009.46 1008.94 1008.68 1008.30 1006.92 1006.54 1007.06 1006.00 1004.86 1004.62 1004.71 1004.37 1002.37 1001.29 1000.75 999.32 999.44 999.79 1000.08 1001.44 1002.93 1004.43 1005.72
1008.79 1009.21 1009.52 1009.61 1009.88 1011.28 1012.00 1012.37 1011.04 1008.58 1008.52 1008.82 1008.79 1008.95 1008.68 1008.30 1007.75 1007.64 1008.03 1008.08 1008.57 1008.88 1008.56 1008.21 1008.59 1007.98 1006.31 1006.29 1005.26 1005.11 1003.85 1002.45 1001.41 1001.40 1001.11 1001.62 1000.32 999.11 999.67 1000.15 1000.44 1001.66 1002.97 1004.47 1005.68
1008.27 1008.59 1008.70 1009.11 1009.77 1010.74 1011.43 1010.93 1008.77 1007.83 1008.13 1008.25 1008.31 1008.17 1007.86 1007.29 1006.94 1007.25 1007.27 1007.11 1007.12 1008.00 1008.24 1007.46 1007.08 1005.75 1005.37 1005.92 1005.25 1004.93 1003.02 1001.76 1000.63 1000.12 999.59 1000.03 999.61 999.79 999.93 1000.49 1001.12 1001.60 1002.91 1004.21 1005.42
1007.81 1008.13 1007.65 1007.86 1009.13 1010.00 1010.30 1009.10 1008.08 1007.53 1007.68 1007.60 1007.04 1006.20 1005.93 1006.12 1006.45 1006.62 1006.04 1004.98 1005.71 1006.87 1008.14 1007.76 1006.93 1005.84 1005.22 1004.85 1005.30 1004.26 1002.83 1002.08 1000.61 999.87 999.24 998.80 998.55 998.31 999.60 1000.07 1000.97 1001.65 1002.71 1004.04 1005.21
1007.58 1007.56 1006.29 1007.05 1008.66 1009.39 1008.82 1008.15 1007.49 1007.13 1007.21 1007.05 1005.80 1004.45 1004.00 1004.72 1005.15 1004.91 1003.92 1003.26 1004.53 1005.54 1007.12 1007.18 1007.30 1006.20 1005.21 1003.90 1003.92 1004.51 1003.18 1001.87 1000.27 999.66 998.78 998.07 998.21 998.36 999.39 1000.02 1000.63 1001.38 1002.40 1003.67 1004.92
1007.03 1007.12 1006.95 1007.60 1008.40 1008.30 1007.84 1007.58 1007.07 1006.36 1006.25 1005.95 1005.03 1003.03 1002.63 1002.88 1003.61 1003.41 1002.67 1002.48 1003.05 1004.21 1005.63 1005.84 1005.00 1004.82 1004.03 1003.35 1003.09 1003.08 1002.95 1001.67 1000.34 1000.09 999.44 998.83 998.90 999.26 999.81 1000.29 1000.65 1001.16 1002.26 1003.49 1004.84
1006.45 1006.28 1006.99 1006.93 1007.06 1007.02 1007.11 1006.89 1006.69 1005.90 1005.46 1004.95 1003.08 1002.16 1001.67 1001.96 1002.32 1003.00 1002.35 1001.50 1002.72 1003.13 1003.40 1003.38 1002.58 1002.59 1003.21 1003.69 1003.73 1003.05 1002.27 1001.56 1000.94 999.91 999.25 999.00 998.80 999.25 999.79 1000.32 1000.89 1001.30 1002.17 1003.47 1004.75
1005.65 1005.56 1006.55 1006.58 1005.85 1005.80 1006.13 1005.88 1005.62 1004.87 1004.35 1003.64 1002.32 1001.40 1000.95 1001.07 1001.21 1001.52 1001.99 1001.31 1001.67 1002.09 1002.66 1002.77 1001.51 1000.41 1000.22 1000.16 1001.66 1002.25 1001.79 1001.30 1001.00 1000.05 999.35 998.68 998.49 999.10 999.59 1000.15 1000.87 1001.54 1002.45 1003.58 1004.69
1005.09 1003.96 1004.11 1004.84 1004.78 1004.73 1004.90 1004.69 1004.04 1003.55 1003.73 1002.99 1001.73 1000.67 1000.40 1000.21 1000.40 1000.28 1001.01 1001.16 1001.96 1001.78 1002.01 1002.00 1000.33 999.69 999.53 999.56 1000.16 1000.51 1000.72 1000.91 1000.48 999.87 999.11 998.57 998.46 998.21 998.61 999.65 1000.62 1001.33 1002.42 1003.48 1004.55
1004.23 1003.18 1003.25 1003.04 1003.05 1003.47 1003.71 1003.47 1003.45 1002.99 1002.04 1001.87 1001.65 1000.07 999.88 999.12 999.38 999.61 999.96 1000.40 1000.77 1001.59 1001.76 1001.78 1000.61 999.95 999.75 999.92 999.81 999.78 999.92 999.93 999.86 999.42 999.06 998.64 997.82 998.02 998.53 999.39 1000.41 1001.32 1002.17 1003.15 1004.28
1003.80 1003.25 1002.67 1001.49 1001.30 1002.01 1002.10 1002.15 1002.15 1002.21 1001.56 1001.46 1001.17 1000.05 999.17 998.77 998.70 998.85 999.65 1000.04 1000.09 1000.43 1001.19 1001.70 1001.07 1000.28 999.74 1000.08 1000.07 999.66 998.73 998.89 999.03 998.74 998.68 997.94 998.10 998.44 999.40 999.97 1000.69 1001.36 1002.29 1003.22 1004.21
Wind_Speed
8 7 5 6 6 6 4 4 4 5 3 3 3 8 7 7 5 10 12 4 5 7 9 10 12 14 14 12 10 8 11 14 19 16 12 3 8 5 5 12 11 9 7 6 5
9 8 5 6 6 6 5 3 3 3 4 3 2 4 5 4 13 15 12 9 9 8 11 9 10 15 15 16 12 13 13 21 16 12 12 9 7 9 9 13 12 10 8 6 4
10 9 7 7 6 6 6 4 2 4 5 4 4 3 4 8 12 10 19 20 18 11 11 11 7 15 20 19 21 18 20 17 18 10 12 13 12 16 11 15 14 8 10 12 12
10 9 8 7 7 7 5 4 2 2 4 5 4 2 7 10 10 6 7 4 14 15 14 12 11 10 12 24 22 22 21 22 20 11 11 15 14 16 16 17 14 14 16 15 12
11 10 9 8 8 8 7 4 2 2 3 5 6 4 7 9 14 9 3 1 6 13 17 15 17 14 18 17 21 23 23 20 19 17 14 14 18 18 21 19 19 17 15 15 13
12 11 10 9 9 9 8 7 5 2 2 5 7 8 10 16 12 16 10 8 5 7 15 16 13 16 15 21 21 11 24 22 17 18 18 17 19 18 19 18 19 16 15 12 12
13 12 11 10 10 11 10 8 6 3 1 4 5 8 13 16 5 7 12 13 13 9 11 16 17 14 10 18 24 21 21 19 24 18 21 18 22 25 20 21 16 16 14 7 5
14 14 11 10 9 9 10 9 7 5 3 2 3 10 8 12 17 11 6 6 9 13 12 10 16 18 7 14 21 24 18 18 18 20 20 14 22 16 11 5 9 5 4 4 4
15 13 11 10 9 9 9 10 10 7 5 5 6 10 11 3 17 18 18 12 6 8 15 11 11 11 8 10 14 15 19 25 21 23 20 20 19 17 17 8 12 11 8 5 4
15 12 11 11 10 8 6 8 7 6 6 5 7 5 13 11 10 14 15 15 14 10 12 16 9 11 13 12 15 20 25 19 23 20 17 19 22 18 16 12 11 11 12 8 7
13 12 11 9 11 10 3 3 3 1 9 11 10 13 3 15 4 8 13 12 15 16 17 21 12 19 27 25 23 22 20 22 21 19 16 17 21 20 18 17 16 11 10 10 9
12 11 10 9 9 12 5 5 7 1 6 21 18 16 12 5 7 12 14 14 19 21 20 19 19 25 28 22 22 23 22 22 13 15 11 14 17 19 17 18 17 13 13 12 11
12 11 9 7 4 3 11 12 6 3 5 7 20 21 18 8 9 12 18 20 21 21 21 24 22 27 28 24 22 26 25 19 15 12 11 13 18 21 19 22 8 11 12 14 14
11 12 9 6 1 9 8 8 8 4 5 6 8 7 13 8 10 23 20 17 16 22 21 19 25 19 27 26 24 19 17 15 15 8 8 9 7 12 13 14 12 12 14 15 15
13 13 12 15 2 3 6 9 9 3 8 11 9 8 10 12 5 18 23 20 20 20 5 11 9 23 26 25 27 12 22 16 12 8 4 12 7 14 11 16 13 14 15 16 15
14 14 12 8 8 2 12 10 3 2 8 7 7 12 9 17 15 2 22 17 14 19 15 19 11 22 22 23 21 9 18 12 7 4 7 13 13 11 13 14 16 14 16 16 16
14 15 13 9 8 16 13 4 3 8 3 5 4 8 12 11 19 10 17 20 11 7 12 9 15 18 13 15 19 13 17 7 6 5 7 5 11 13 10 6 7 16 17 18 16
13 15 12 10 7 15 6 2 10 4 6 4 4 8 7 12 15 20 9 16 21 9 5 9 10 15 17 7 10 12 17 8 8 10 12 7 8 5 8 4 9 14 17 17 17
10 5 4 9 9 11 5 6 5 4 6 7 8 6 7 15 7 15 16 17 18 19 6 8 8 13 13 11 14 7 11 2 3 7 8 9 10 8 5 6 8 15 18 19 18
3 3 4 15 15 7 5 10 6 5 4 7 12 14 13 15 10 14 12 16 17 16 14 5 2 6 3 11 6 9 8 7 4 8 5 8 6 7 10 8 10 14 19 18 17
3 3 3 11 9 3 7 7 7 8 9 9 16 13 14 12 15 12 9 7 22 20 15 2 2 4 6 6 13 7 4 5 4 3 3 7 5 11 6 2 8 13 18 19 18
3 3 8 11 5 3 5 5 4 7 16 11 14 11 14 17 13 16 13 16 18 14 11 12 7 4 6 6 13 10 10 13 6 6 5 5 6 5 4 2 5 12 16 18 17
3 3 5 6 5 5 4 7 7 3 7 10 11 13 12 13 10 12 11 15 12 19 9 10 3 4 6 7 4 5 11 16 13 6 11 7 6 4 5 6 6 11 16 16 17
3 5 3 3 4 5 6 8 8 13 16 16 10 14 14 13 15 16 8 10 12 20 16 6 9 7 5 7 13 10 15 16 15 10 10 11 5 10 6 6 8 11 14 16 16
3 5 6 6 8 13 9 5 5 7 12 17 7 18 16 13 16 7 15 13 13 16 14 6 9 4 3 4 16 17 20 20 19 18 12 12 15 10 6 9 9 13 15 16 16
3 5 5 3 11 14 14 8 13 13 13 7 13 19 18 10 13 10 15 11 10 15 17 12 5 2 3 1 6 13 18 20 22 23 21 19 16 5 3 4 9 13 15 16 15
1 3 3 5 7 7 5 11 12 12 8 6 8 9 16 13 12 3 13 11 3 15 19 7 5 4 3 5 5 10 19 19 19 22 20 21 17 14 6 8 9 10 13 13 13
Wind_Direction
293 297 301 301 301 308 321 330 337 340 343 303 283 246 247 227 187 220 252 248 332 3 299 280 261 237 229 236 232 236 245 242 245 243 256 165 258 279 287 273 280 278 281 43 26
295 300 308 308 304 292 289 298 306 300 301 296 250 250 241 215 240 238 243 262 265 288 278 265 271 222 221 220 216 221 227 241 248 256 254 276 258 291 289 279 273 271 233 225 258
289 293 296 296 294 290 293 272 289 303 290 298 292 274 185 197 260 244 228 238 242 236 252 267 272 295 227 230 218 220 239 242 249 254 269 276 278 277 276 273 272 281 314 315 319
280 283 286 286 292 281 272 264 275 292 262 261 267 231 177 210 251 71 45 295 246 232 239 230 228 238 238 228 232 228 238 242 258 238 241 260 274 281 271 272 287 285 285 293 288
270 272 275 279 283 280 265 232 225 264 282 263 242 191 189 223 239 144 196 74 190 205 220 218 219 222 233 228 232 239 237 239 246 257 250 262 266 269 272 279 275 271 274 272 272
259 263 266 264 268 264 265 259 237 198 279 281 246 195 239 245 240 251 216 251 291 214 216 230 235 226 248 235 225 230 241 245 232 243 246 255 266 266 266 275 275 283 279 271 262
251 256 251 257 259 268 257 256 249 226 224 285 251 212 236 234 204 255 246 253 261 257 238 229 235 237 232 252 246 233 245 236 243 239 255 257 264 258 265 260 279 278 262 258 266
244 249 242 253 244 259 267 265 259 260 220 224 223 226 246 241 250 221 206 228 241 250 249 262 231 249 267 290 277 227 242 243 234 228 238 231 259 258 262 222 249 291 267 207 212
240 243 248 232 220 244 260 274 262 238 222 158 200 225 250 155 222 231 231 232 224 245 232 243 243 219 248 238 243 224 226 220 240 232 228 209 255 249 247 222 261 265 214 206 165
232 235 242 226 214 226 261 283 293 207 188 205 252 215 236 226 224 225 221 232 235 251 223 211 210 211 219 221 211 209 217 216 222 229 208 235 238 250 262 247 259 262 235 195 183
223 226 235 230 218 199 174 117 99 238 213 193 192 218 357 201 219 208 206 204 222 229 221 206 213 216 213 225 236 228 206 217 223 213 231 239 247 246 237 248 255 247 217 193 167
224 223 232 228 231 206 194 220 211 38 225 232 250 229 262 233 216 223 183 199 201 217 217 220 225 224 222 235 228 248 221 209 207 193 204 245 246 248 241 246 250 232 215 189 156
224 220 224 219 200 201 229 235 128 88 258 221 226 232 223 218 241 211 192 207 203 219 219 223 225 228 222 220 226 233 223 216 213 180 226 262 265 254 247 243 243 229 203 179 176
223 210 207 154 102 237 235 184 129 91 261 200 213 220 208 198 239 238 198 212 222 224 215 241 240 265 212 221 233 213 222 201 190 195 218 214 274 200 202 194 196 197 188 172 166
213 211 196 184 97 223 131 123 110 89 265 126 151 168 188 187 187 201 210 214 227 211 145 210 200 239 216 211 203 221 201 184 190 194 315 218 250 259 203 196 190 197 182 171 164
209 209 187 198 240 233 131 128 113 202 247 163 137 178 190 197 241 179 198 211 228 250 237 241 232 226 209 208 225 270 164 156 180 160 229 233 221 260 189 209 193 177 175 166 164
207 205 187 198 224 142 138 135 186 235 106 176 176 195 204 187 219 188 197 202 206 179 232 203 246 260 180 215 203 211 145 149 162 195 223 152 208 243 109 111 163 172 171 169 162
205 205 208 218 158 142 150 151 223 237 186 122 156 169 194 188 216 210 216 226 215 208 228 183 202 203 193 231 198 193 179 175 162 183 193 140 221 213 95 74 154 172 169 166 167
196 207 170 202 153 160 150 226 232 196 164 176 157 182 206 199 220 195 217 238 212 190 257 172 237 188 184 188 166 200 212 59 113 33 160 167 229 155 180 153 176 176 169 171 173
154 174 212 183 172 164 189 226 239 178 161 170 194 204 194 194 190 185 204 213 210 210 203 269 279 318 153 134 42 225 187 183 235 153 189 158 200 113 172 155 174 187 175 174 175
142 185 150 131 149 153 216 215 228 201 178 189 217 205 215 177 201 207 218 230 193 199 187 197 250 297 207 182 149 160 214 225 288 349 238 162 146 89 92 129 175 189 177 176 174
165 213 141 145 172 182 220 200 222 244 201 212 265 224 228 187 191 207 224 218 192 176 209 205 197 176 82 74 173 162 208 223 212 162 268 329 104 143 81 116 184 172 178 172 172
223 157 161 173 197 200 235 225 258 263 181 204 218 223 214 195 197 201 245 193 202 189 213 191 203 118 109 71 37 195 226 207 241 290 223 224 115 128 106 114 153 159 171 166 173
228 190 154 226 259 197 200 221 233 225 234 223 238 210 200 194 231 191 244 185 202 202 212 265 260 236 173 176 145 190 208 210 215 228 230 230 153 159 144 132 147 156 169 172 177
222 211 171 190 224 227 186 219 234 214 218 204 266 201 193 202 206 237 201 158 190 213 224 260 273 231 224 86 171 184 196 211 223 234 236 232 228 237 205 168 170 164 171 175 181
190 226 158 276 217 215 215 201 240 253 186 215 230 205 194 214 196 202 187 184 184 202 214 227 300 318 220 254 229 209 209 214 221 229 235 247 248 266 32 121 164 177 178 183 185
175 282 286 277 219 212 209 216 231 204 195 191 226 235 204 222 192 238 190 200 216 189 194 210 254 221 162 182 200 247 230 218 224 231 235 236 239 239 181 184 196 190 182 190 188